Tracking 28790 objects as of 19-Apr-2024
HD Live streaming from Space Station
objects crossing your sky now

NOAA 16 DEB

Track NOAA 16 DEB now!
10-day predictions


NORAD ID: 41259
Int'l Code: 2000-055FK
Perigee: 543.9 km
Apogee: 583.0 km
Inclination: 98.8 °
Period: 95.8 minutes
Semi major axis: 6934 km
RCS: Unknown
Launch date: September 21, 2000
Source: United States (US)
Launch site: AIR FORCE WESTERN TEST RANGE (AFWTR)

Note: This is SATELLITE DEBRIS
Your satellite tracking list
Your tracking list is empty




NASA's NSSDC Master Catalog

Two Line Element Set (TLE):
1 41259U 00055FK  24110.07064269  .00283568  00000-0  19885-1 0  9997
2 41259  98.8195 329.4205 0028199 314.3294  45.5616 15.03430643438688
Source of the keplerian elements: AFSPC